{"data":{"norad_id":60370,"epoch":"2026-05-24T21:33:54.656064Z","epoch_age_seconds":79714,"freshness":"FRESH","line1":"1 60370U 24138R   26144.89854926  .00000487  00000+0  28576-4 0  9992","line2":"2 60370  53.1619 315.7500 0000941  80.7217 279.3891 15.30201703102298","mean_motion":15.30201703,"eccentricity":9.41e-5,"inclination_deg":53.1619,"raan_deg":315.75,"arg_perigee_deg":80.7217,"mean_anomaly_deg":279.3891,"bstar":2.8576e-5,"rev_number":10229,"period_min":94.105240974235,"perigee_km":474.56508462176,"apogee_km":475.85488452426,"semimajor_km":6853.346984573,"source":"CELESTRAK","updated_at":"2026-05-25T13:38:19.241025Z"}}